GW1838 Weather Reports


Display with metric or nautical units.
time (UTC)temp
F
wind
direction
speed
MPH
gust
MPH
rain 1hr
in
rain 24hr
in
rain mn
in
humidity
%
barometer
mb
20260506102805 57 210 12.0 26.0 0.00 0.00 0.00 92 1010.7
20260506102306 57 214 14.0 22.0 0.00 0.00 0.00 92 1010.8
20260506101805 56 204 13.0 20.0 0.00 0.00 0.00 92 1010.6
20260506100805 56 201 13.0 20.0 0.00 0.00 0.00 93 1010.6
20260506094805 56 211 12.0 20.0 0.00 0.00 0.00 93 1010.5
20260506093305 56 209 12.0 20.0 0.00 0.00 0.00 92 1010.6
20260506092805 56 203 14.0 20.0 0.00 0.00 0.00 92 1010.7
20260506091806 56 212 13.0 21.0 0.00 0.00 0.00 92 1010.8
20260506090306 56 201 12.0 20.0 0.00 0.00 0.00 92 1010.9
20260506082305 57 203 14.0 21.0 0.00 0.00 0.00 91 1010.9
20260506081305 57 213 13.0 21.0 0.00 0.00 0.00 91 1011.0
20260506080805 56 209 11.0 20.0 0.00 0.00 0.00 91 1011.0
20260506080305 57 218 14.0 21.0 0.00 0.00 0.00 91 1011.0
20260506073305 58 213 16.0 30.0 0.00 0.00 0.00 89 1011.2
20260506072805 58 207 16.0 26.0 0.00 0.00 0.00 89 1011.3
20260506070806 58 204 15.0 21.0 0.00 0.00 0.00 89 1011.2
20260506070306 58 211 15.0 26.0 0.00 0.00 0.00 89 1011.3
20260506061306 59 204 17.0 25.0 0.00 0.00 0.00 86 1011.2
20260506060805 59 213 15.0 23.0 0.00 0.00 0.00 86 1011.2
20260506060306 59 207 13.0 20.0 0.00 0.00 0.00 86 1011.2
20260506050305 58 209 15.0 24.0 0.00 0.00 0.00 86 1011.8
20260506044305 58 215 14.0 21.0 0.00 0.00 0.00 87 1011.7
20260506042305 57 204 13.0 22.0 0.00 0.00 0.00 87 1011.8
20260506040839 57 212 14.0 26.0 0.00 0.00 0.00 87 1011.8
20260506035808 57 212 12.0 20.0 0.00 0.00 0.00 87 1011.8
20260506035306 57 202 12.0 23.0 0.00 0.00 0.00 87 1011.9
20260506034806 57 224 10.0 20.0 0.00 0.00 0.00 87 1011.9
20260506034305 57 206 12.0 20.0 0.00 0.00 0.00 87 1011.9
20260506033805 57 203 11.0 20.0 0.00 0.00 0.00 86 1011.9
20260506033306 57 209 10.0 18.0 0.00 0.00 0.00 86 1011.9
20260506032804 57 212 12.0 22.0 0.00 0.00 0.00 86 1011.9
20260506030805 57 215 14.0 21.0 0.00 0.00 0.00 85 1012.0
20260506030307 58 201 14.0 23.0 0.00 0.00 0.00 85 1012.0
20260506024305 59 211 17.0 26.0 0.00 0.00 0.00 84 1012.0
20260506023305 59 205 13.0 25.0 0.00 0.00 0.00 83 1012.1
20260506021805 59 214 16.0 26.0 0.00 0.00 0.00 82 1012.1
20260506021305 59 202 16.0 25.0 0.00 0.00 0.00 82 1012.1
20260506020805 59 199 17.0 25.0 0.00 0.00 0.00 83 1012.1
20260506020305 59 215 14.0 24.0 0.00 0.00 0.00 83 1012.0
20260506015306 59 205 15.0 26.0 0.00 0.00 0.00 82 1011.9
20260506014807 59 206 16.0 24.0 0.00 0.00 0.00 82 1012.0
20260506014305 59 230 13.0 21.0 0.00 0.00 0.00 83 1012.0
20260506013806 59 200 13.0 23.0 0.00 0.00 0.00 83 1011.9
20260506013305 59 221 12.0 20.0 0.00 0.00 0.00 83 1011.9
20260506012307 59 216 13.0 21.0 0.00 0.00 0.00 83 1011.9
20260506011305 59 206 17.0 25.0 0.00 0.00 0.00 84 1011.8
20260506010805 59 210 13.0 23.0 0.00 0.00 0.00 83 1011.7
20260506005805 59 217 12.0 21.0 0.00 0.00 0.00 83 1011.5
20260506004305 59 197 16.0 23.0 0.00 0.00 0.00 82 1011.4
20260506003804 60 204 14.0 29.0 0.00 0.00 0.00 82 1011.4
20260506003305 59 206 16.0 26.0 0.00 0.00 0.00 82 1011.5
20260506002805 59 200 16.0 24.0 0.00 0.00 0.00 82 1011.5
20260506001304 59 186 16.0 21.0 0.00 0.00 0.00 82 1011.2
20260506000804 59 211 13.0 25.0 0.00 0.00 0.00 81 1011.3
20260505235305 59 216 13.0 25.0 0.00 0.00 0.00 81 1011.1
20260505234305 60 228 13.0 23.0 0.00 0.00 0.00 79 1011.1
20260505233805 60 194 16.0 32.0 0.00 0.00 0.00 79 1011.1
20260505231804 61 208 13.0 22.0 0.00 0.00 0.00 76 1011.0
20260505230305 61 206 14.0 24.0 0.00 0.00 0.00 77 1010.9
20260505225306 61 210 15.0 23.0 0.00 0.00 0.00 77 1010.5
20260505224804 61 201 15.0 25.0 0.00 0.00 0.00 77 1010.6
20260505224305 61 203 15.0 29.0 0.00 0.00 0.00 76 1010.5
20260505222306 63 208 13.0 21.0 0.00 0.00 0.00 74 1010.5
20260505220805 63 205 8.0 20.0 0.00 0.00 0.00 74 1010.5
20260505214805 62 204 16.0 32.0 0.00 0.00 0.00 75 1010.3
20260505205804 62 219 17.0 25.0 0.00 0.00 0.00 75 1009.9
20260505205305 62 183 17.0 29.0 0.00 0.00 0.00 76 1009.9
20260505204804 62 195 16.0 23.0 0.00 0.00 0.00 76 1009.9
20260505204304 62 208 14.0 26.0 0.00 0.00 0.00 76 1009.9
20260505202804 61 203 12.0 23.0 0.00 0.00 0.00 78 1009.9
20260505202306 61 219 12.0 24.0 0.00 0.00 0.00 79 1009.9
20260505201804 60 192 14.0 24.0 0.00 0.00 0.00 78 1009.9
20260505200305 60 210 14.0 23.0 0.00 0.00 0.00 79 1009.9
20260505195305 60 197 16.0 21.0 0.00 0.00 0.00 79 1010.1
20260505194304 60 201 17.0 26.0 0.00 0.00 0.00 78 1010.2
20260505193804 61 215 15.0 23.0 0.00 0.00 0.00 78 1010.2
20260505193304 61 211 13.0 24.0 0.00 0.00 0.00 78 1010.3
20260505192805 61 210 16.0 25.0 0.00 0.00 0.00 78 1010.5
20260505192305 61 211 10.0 20.0 0.00 0.00 0.00 79 1010.6
20260505191805 60 193 13.0 26.0 0.00 0.00 0.00 80 1010.6
20260505190304 60 193 12.0 20.0 0.00 0.00 0.00 80 1010.6
20260505185804 60 195 14.0 22.0 0.00 0.00 0.00 80 1010.6
20260505184805 59 192 12.0 21.0 0.00 0.00 0.00 79 1010.7
20260505183805 60 202 13.0 20.0 0.00 0.00 0.00 79 1010.7
20260505182306 60 201 13.0 24.0 0.00 0.00 0.00 79 1010.8
20260505181305 60 192 12.0 20.0 0.00 0.00 0.00 79 1011.0
20260505180804 60 197 11.0 23.0 0.00 0.00 0.00 80 1011.0
20260505173805 60 201 11.0 20.0 0.00 0.00 0.00 80 1011.2
20260505172306 59 192 11.0 18.0 0.00 0.00 0.00 81 1011.1
20260505171304 59 195 14.0 23.0 0.00 0.00 0.00 81 1011.1
20260505170304 59 195 13.0 21.0 0.00 0.00 0.00 81 1010.9
20260505165804 59 198 12.0 20.0 0.00 0.00 0.00 81 1011.0
20260505164804 59 206 11.0 20.0 0.00 0.00 0.00 80 1011.1
20260505163304 59 209 12.0 21.0 0.00 0.00 0.00 81 1011.4
20260505162804 59 213 11.0 17.0 0.00 0.00 0.00 81 1011.5
20260505152804 58 202 12.0 18.0 0.00 0.00 0.00 83 1011.7
20260505150805 58 226 10.0 22.0 0.00 0.00 0.00 83 1011.8
20260505150304 58 203 13.0 24.0 0.00 0.00 0.00 83 1011.8
20260505123304 59 201 7.0 12.0 0.00 0.00 0.00 84 1011.5
20260505122805 59 222 6.0 10.0 0.00 0.00 0.00 85 1011.5
20260505122305 58 206 5.0 12.0 0.00 0.00 0.00 85 1011.4
20260505121304 58 197 5.0 12.0 0.00 0.00 0.00 88 1011.4
20260505120806 57 193 5.0 10.0 0.00 0.00 0.00 88 1011.4
20260505115804 56 201 8.0 13.0 0.00 0.00 0.00 87 1011.4
20260505114304 56 213 7.0 15.0 0.00 0.00 0.00 90 1011.3
20260505113304 55 200 7.0 13.0 0.00 0.00 0.00 90 1011.4
20260505111804 54 194 7.0 15.0 0.00 0.00 0.00 90 1011.3
20260505111304 54 203 9.0 16.0 0.00 0.00 0.00 90 1011.3
20260505110804 55 205 9.0 18.0 0.00 0.00 0.00 90 1011.4
20260505110304 55 198 7.0 13.0 0.00 0.00 0.00 89 1011.3